User: anonymous   Login
Location: Benque
(43.2594°N, 0.9178°E)
Time: 12:28:47
(UTC+00:00)
Language:

Cosmos 1758 Rocket - Orbit

View from above orbital plane
View from above orbital plane
View from above satellite
View from above satellite

Ground track
Ground track

The orbit data is extracted from the following two-line orbital elements,

1 16792U 86046B   20089.13409647  .00000064  00000-0  48953-5 0  9996
2 16792  82.4831 326.3738 0024041 184.2317 290.1893 14.83237640825478
Epoch (UTC): 29 March 2020 03:13:05
Eccentricity: 0.0024041
inclination: 82.4831°
perigee height: 602 km
apogee height: 636 km
right ascension of ascending node: 326.3738°
argument of perigee: 184.2317°
revolutions per day: 14.83237640
mean anomaly at epoch: 290.1893°
orbit number at epoch: 82547

The dashed part of the orbit path shows where the satellite is in the earth's shadow,  

DLR